Wind_Speed
15 15 16 17 17 18 18 18 20 21 22 22 23 24 25 26 27 28 28 28 29 32 33 35 35 35 36 37 36 36 36 35 35 35 36 36 36 35
15 15 16 17 18 19 19 20 21 22 23 22 23 24 25 25 26 27 27 28 29 30 32 33 34 35 36 37 38 37 36 36 36 36 37 37 36 36
15 15 16 16 18 18 19 20 21 22 22 22 23 24 25 26 25 26 27 27 29 31 32 33 34 35 37 38 38 38 38 38 37 36 38 38 37 37
15 16 17 17 18 18 19 20 21 21 22 22 23 24 25 25 25 26 26 27 28 29 31 33 34 35 36 37 38 38 38 39 39 38 38 38 38 38
16 17 18 18 19 20 20 21 21 22 23 22 22 23 24 25 25 26 26 27 28 29 30 32 33 34 35 36 38 39 39 39 39 38 37 38 38 38
16 17 18 19 20 21 21 22 22 23 23 23 23 24 25 25 26 26 26 26 27 29 30 31 33 34 34 36 37 38 39 40 40 40 39 39 38 39
17 19 20 20 21 22 23 23 24 24 24 23 24 25 26 27 28 27 27 26 27 28 29 31 32 33 33 34 37 38 39 41 41 41 40 40 41 40
19 20 21 21 22 22 23 24 24 24 25 25 26 26 27 28 29 29 28 28 29 30 31 31 31 31 32 34 35 37 39 40 41 41 41 40 40 40
19 20 21 22 22 23 24 24 24 24 25 25 25 26 26 27 27 27 28 29 30 31 31 31 32 33 34 35 35 36 37 38 39 39 40 40 40 40
19 20 21 22 22 23 23 24 24 24 24 24 24 24 24 25 25 26 28 29 30 31 32 32 32 33 34 35 36 36 36 37 38 39 39 40 40 40
20 20 21 22 22 23 23 23 23 24 24 24 24 24 25 25 25 26 26 27 27 28 30 30 31 33 33 33 34 35 36 36 37 38 39 39 39 40
19 20 21 22 22 23 23 23 23 23 23 23 23 24 24 25 25 25 25 26 26 26 28 29 30 31 32 32 33 34 34 36 37 38 38 39 40 40
20 20 21 22 22 22 23 22 22 23 23 23 23 23 23 24 24 24 24 25 26 26 27 28 28 29 30 31 32 32 33 35 36 37 38 38 39 40
19 20 21 22 23 23 23 23 23 23 24 24 24 24 24 24 23 23 23 23 24 24 24 24 24 25 27 28 29 30 31 32 33 34 35 36 37 39
19 19 20 21 22 23 23 23 23 23 24 24 24 24 24 23 23 23 23 23 23 23 22 22 22 23 24 26 27 29 29 30 31 32 33 34 36 37
20 20 21 22 23 23 23 23 23 22 22 23 23 23 23 22 22 22 22 23 22 22 21 21 22 22 23 24 25 26 28 29 30 30 31 32 33 34
20 21 21 22 23 23 22 21 21 21 21 22 22 22 23 22 22 22 22 22 22 21 21 22 22 22 22 23 24 24 25 27 28 29 30 30 30 31
19 20 21 21 22 22 21 21 20 21 21 21 21 22 22 22 22 22 22 21 21 20 20 20 21 21 22 22 23 24 25 25 27 28 28 28 29 30
19 19 20 21 21 21 21 21 20 20 20 20 20 21 21 21 21 21 20 20 20 20 20 20 20 20 21 21 22 23 24 25 26 28 29 29 29 29
19 20 20 21 21 21 21 21 20 20 20 20 21 21 21 21 20 20 19 19 19 19 19 18 19 19 20 20 21 22 23 24 26 27 28 29 29 29
19 20 20 21 21 21 21 20 20 20 20 20 21 21 21 20 20 19 19 19 18 18 18 18 18 19 20 20 20 20 22 23 24 25 26 27 27 27
20 21 21 21 21 21 21 21 20 20 20 21 21 21 22 21 21 20 19 19 18 18 17 18 18 18 18 19 19 19 19 20 21 22 22 22 23 24
21 21 20 21 21 22 22 22 21 20 21 21 21 21 21 21 21 21 20 19 19 18 17 17 18 18 18 18 19 19 19 19 19 19 20 20 21 22
Wind_Direction
283 280 280 280 279 278 278 278 277 278 279 278 274 268 265 264 263 260 258 256 256 252 249 248 248 246 245 245 244 243 243 244 245 244 243 244 245 246
284 283 283 282 280 278 279 280 280 280 282 279 276 271 267 265 265 263 262 259 256 254 252 249 249 249 247 245 245 244 244 244 245 244 243 244 244 245
286 285 287 287 285 283 283 282 282 282 283 282 279 274 271 269 267 265 262 262 259 257 254 252 250 250 249 247 245 244 244 244 244 245 244 243 244 245
288 289 289 289 289 288 288 288 288 287 284 283 282 279 276 274 272 269 266 265 264 260 254 251 251 251 250 249 247 246 245 245 244 245 245 244 244 245
288 290 291 291 290 290 291 291 291 289 286 284 283 281 280 278 275 272 269 266 263 262 256 251 250 251 252 250 247 245 244 244 244 244 243 243 243 243
288 291 294 294 292 290 291 291 291 291 290 285 284 282 281 280 278 276 271 266 263 261 259 255 252 251 252 250 247 245 244 244 245 246 245 245 245 245
290 292 294 295 295 292 291 290 290 290 288 286 285 284 282 281 278 275 271 269 267 265 263 260 256 252 251 251 248 246 245 245 246 246 246 247 245 245
294 295 296 295 295 294 293 291 290 290 288 286 286 285 284 283 280 276 272 270 269 267 265 261 258 255 253 253 251 248 246 246 246 246 245 245 246 245
297 298 299 299 299 298 297 295 293 293 292 290 289 288 287 286 283 279 276 274 271 267 264 261 260 258 256 254 252 250 248 246 245 245 245 245 245 245
299 300 301 301 301 300 298 295 295 295 295 294 293 292 291 291 288 283 279 277 274 269 265 262 260 259 257 255 253 250 249 247 247 246 245 246 246 246
300 301 302 302 302 301 300 297 295 295 296 296 295 295 294 293 291 287 284 281 279 274 269 265 263 259 256 255 253 250 248 246 246 246 245 245 246 244
301 302 303 304 303 303 302 298 297 297 297 297 297 296 295 293 292 290 286 282 280 278 274 270 265 260 257 254 253 250 248 247 247 246 245 245 245 244
302 303 305 305 305 303 303 300 300 299 299 299 299 298 298 296 295 293 289 286 283 281 277 274 269 263 259 257 254 252 250 249 248 248 247 246 246 244
305 306 307 308 308 306 304 301 300 300 300 300 300 299 299 298 296 294 292 290 288 285 280 276 272 266 262 259 256 254 252 250 249 248 248 248 247 246
306 307 309 310 310 308 305 302 301 300 299 300 300 300 300 298 295 293 291 290 289 287 283 279 273 268 264 262 258 255 253 252 251 249 249 249 249 247
310 310 310 311 310 310 309 307 305 303 301 301 301 300 300 299 296 294 293 292 291 288 285 282 276 270 266 263 260 256 253 252 251 251 250 250 248 247
313 313 313 315 314 313 312 311 310 309 306 304 303 302 301 300 298 296 294 292 291 289 286 283 279 275 270 264 260 258 255 252 251 251 250 250 250 249
317 318 318 319 318 317 316 313 313 312 310 308 306 306 304 302 301 298 295 292 290 287 285 284 281 277 273 268 263 259 256 254 252 251 249 250 250 250
321 322 324 324 323 321 320 318 316 314 313 312 310 310 309 307 305 302 300 296 292 289 286 283 281 279 274 267 265 262 259 256 254 252 251 251 252 251
323 325 326 327 326 325 323 320 317 316 316 314 312 312 312 312 309 306 305 302 297 292 289 285 284 281 277 272 267 264 262 258 255 254 253 253 252 252
324 325 325 326 327 327 326 323 321 318 316 316 315 313 313 314 312 310 308 305 302 298 292 288 287 283 279 275 269 266 263 260 257 255 253 253 252 250
323 323 324 326 327 328 325 324 324 323 321 320 319 317 314 314 313 311 309 307 305 302 297 291 289 284 280 276 271 268 264 262 260 258 255 254 252 249
323 323 322 324 326 327 325 323 323 324 324 323 322 322 320 317 315 314 312 308 306 302 298 293 289 287 283 278 273 269 266 261 258 256 255 254 253 252
Height
5771 5770 5769 5768 5767 5767 5766 5766 5765 5764 5763 5761 5760 5759 5759 5759 5759 5758 5758 5759 5759 5760 5762 5764 5767 5769 5772 5774 5777 5780 5783 5785 5787 5790 5793 5795 5798 5800
5765 5764 5764 5763 5762 5761 5761 5760 5758 5757 5756 5755 5754 5753 5752 5752 5751 5751 5751 5751 5751 5752 5753 5755 5757 5760 5762 5764 5767 5770 5773 5776 5778 5780 5783 5786 5789 5791
5760 5760 5759 5758 5757 5756 5755 5754 5752 5751 5749 5748 5747 5746 5745 5745 5744 5743 5743 5743 5743 5743 5744 5746 5748 5750 5752 5754 5757 5760 5763 5766 5768 5771 5773 5776 5779 5782
5756 5755 5754 5753 5752 5750 5749 5748 5746 5745 5743 5742 5740 5739 5738 5737 5736 5735 5735 5734 5734 5734 5735 5737 5738 5740 5742 5744 5747 5749 5752 5755 5758 5761 5764 5767 5770 5772
5751 5750 5749 5748 5746 5745 5743 5742 5740 5738 5737 5735 5733 5732 5731 5730 5729 5728 5726 5726 5725 5725 5726 5727 5729 5731 5732 5734 5736 5739 5742 5745 5748 5750 5753 5756 5760 5763
5747 5746 5744 5742 5741 5739 5737 5736 5734 5732 5730 5728 5727 5725 5723 5722 5721 5720 5718 5717 5717 5717 5717 5718 5719 5721 5722 5724 5726 5729 5731 5734 5737 5740 5743 5746 5749 5752
5742 5740 5739 5737 5735 5733 5731 5730 5728 5725 5723 5721 5720 5718 5716 5714 5713 5711 5710 5709 5709 5708 5708 5709 5710 5711 5712 5713 5715 5717 5720 5723 5726 5729 5732 5735 5738 5741
5737 5735 5733 5731 5729 5727 5725 5723 5721 5719 5717 5715 5712 5710 5708 5706 5704 5702 5701 5701 5701 5700 5699 5700 5700 5701 5702 5703 5705 5707 5709 5712 5715 5717 5720 5724 5727 5730
5731 5729 5727 5725 5723 5721 5718 5716 5714 5711 5710 5707 5705 5702 5700 5698 5695 5694 5692 5691 5691 5690 5690 5690 5690 5691 5692 5693 5694 5696 5698 5700 5703 5706 5709 5712 5715 5718
5726 5724 5722 5719 5717 5714 5712 5710 5707 5705 5702 5700 5698 5695 5692 5689 5687 5685 5683 5682 5681 5679 5679 5680 5680 5681 5681 5682 5683 5685 5687 5689 5692 5695 5698 5701 5704 5707
5721 5719 5716 5714 5711 5708 5706 5703 5701 5698 5695 5693 5690 5687 5685 5682 5679 5677 5674 5672 5671 5670 5669 5669 5670 5670 5671 5672 5673 5674 5677 5679 5681 5684 5687 5690 5693 5696
5716 5713 5711 5708 5705 5702 5699 5696 5694 5692 5689 5686 5683 5680 5677 5675 5672 5669 5667 5665 5663 5662 5660 5659 5659 5659 5661 5662 5663 5664 5666 5668 5670 5673 5675 5678 5681 5684
5710 5708 5705 5702 5699 5696 5693 5690 5688 5685 5682 5679 5676 5674 5671 5668 5665 5662 5659 5657 5655 5653 5652 5650 5650 5649 5650 5651 5652 5654 5656 5657 5659 5662 5664 5667 5669 5672
5705 5702 5699 5696 5692 5689 5686 5683 5681 5678 5675 5672 5669 5667 5664 5661 5658 5655 5652 5650 5648 5646 5644 5642 5641 5640 5641 5642 5643 5644 5646 5647 5649 5651 5653 5656 5658 5661
5699 5696 5693 5690 5686 5683 5680 5676 5674 5671 5668 5665 5662 5660 5657 5654 5651 5648 5646 5643 5641 5639 5636 5635 5633 5633 5633 5633 5634 5635 5637 5638 5640 5641 5643 5645 5648 5650
5694 5691 5688 5684 5681 5677 5673 5670 5667 5664 5661 5658 5655 5653 5650 5647 5644 5641 5639 5636 5634 5632 5630 5628 5627 5626 5625 5625 5626 5627 5628 5629 5631 5632 5634 5636 5637 5639
5689 5686 5682 5679 5675 5671 5667 5664 5661 5658 5655 5652 5649 5646 5643 5640 5637 5634 5632 5629 5627 5625 5623 5621 5619 5618 5618 5618 5618 5619 5619 5621 5622 5623 5625 5627 5628 5630
5684 5681 5677 5673 5669 5666 5662 5658 5655 5652 5649 5645 5642 5639 5636 5633 5630 5628 5625 5623 5621 5618 5616 5614 5613 5611 5611 5610 5611 5611 5611 5612 5613 5615 5616 5618 5620 5621
5680 5677 5673 5669 5665 5661 5657 5653 5650 5647 5643 5640 5637 5634 5630 5627 5624 5622 5619 5616 5614 5612 5610 5608 5606 5605 5604 5604 5603 5603 5604 5604 5605 5606 5608 5610 5611 5613
5676 5672 5668 5664 5660 5656 5652 5649 5645 5642 5638 5635 5632 5629 5625 5622 5619 5616 5613 5610 5607 5605 5603 5601 5600 5599 5597 5597 5596 5596 5595 5596 5597 5598 5599 5601 5602 5604
5672 5668 5664 5660 5656 5652 5648 5644 5641 5637 5634 5630 5627 5623 5620 5617 5613 5610 5607 5604 5601 5599 5597 5595 5594 5592 5590 5589 5589 5589 5588 5588 5588 5590 5591 5592 5593 5595
5668 5664 5660 5656 5652 5648 5644 5640 5636 5633 5629 5625 5622 5618 5615 5611 5608 5604 5601 5598 5595 5593 5591 5589 5587 5585 5584 5582 5582 5581 5581 5580 5581 5581 5582 5584 5585 5587
5663 5660 5656 5652 5648 5644 5640 5636 5632 5628 5625 5621 5617 5614 5610 5606 5602 5599 5596 5592 5590 5587 5585 5583 5581 5579 5577 5576 5575 5574 5574 5574 5574 5574 5576 5576 5578 5579